Flag for U.S.A. Weather past 2 weeks in Virginia Beach, Virginia, U.S.A.

Now
64 °F

Partly sunny.


Feels Like: 64 °F
Forecast: 48 / 62 °F
Wind: 8 mph from Northwest

Location: Virginia Beach - Oceana


UV Index: 5 (Moderate)

Visibility: 10 mi


Pressure: 30.01 "Hg

Humidity: 25%

Dew point: 27 °F

Location of Virginia BeachLocation

Historic Weather in Virginia Beach

°F

Virginia Beach temperature yesterday

Maximum temperature yesterday: 67 °F (at 2:56 PM)
Minimum temperature yesterday: 56 °F (at 6:56 AM)
Average temperature yesterday: 61 °F

Past Weeks' High & Low Weather Summary

 TemperatureHumidityPressure
High83 °F (Apr 22, 4:56 PM)93% (Apr 12, 10:56 PM)30.59 "Hg (Apr 12, 10:56 PM)
Low38 °F (Apr 16, 4:56 AM)22% (Apr 24, 4:56 PM)29.59 "Hg (Apr 22, 6:56 PM)
Average58 °F63%30.12 "Hg
* Reported Apr 9 5:56 PM — Apr 24 5:56 PM, Virginia Beach, Weather by CustomWeather, © 2014

Note: Actual official high and low records may vary slightly from our data, if they occured in-between our weather recording intervals... More about our weather records

Advertising

Historic Weather Conditions — Data for Previous 24 hours

 ConditionsComfort  
Time TempWeatherWind HumidityBarometerVisibility
5:56 PM
Apr 24
64 °FPartly sunny.8 mph25%30.01 "Hg10 mi
4:56 PM66 °FPartly sunny.8 mph22%30.01 "Hg10 mi
3:56 PM65 °FPartly sunny.7 mph25%30.02 "Hg10 mi
2:56 PM64 °FPartly sunny.N/A27%30.04 "Hg10 mi
1:56 PM62 °FPartly sunny.6 mph30%30.06 "Hg10 mi
12:56 PM60 °FScattered clouds.10 mph31%30.08 "Hg10 mi
11:56 AM57 °FScattered clouds.13 mph33%30.11 "Hg10 mi
10:56 AM55 °FScattered clouds.16 mph39%30.12 "Hg10 mi
9:56 AM54 °FSunny.16 mph41%30.12 "Hg10 mi
8:56 AM53 °FSunny.18 mph39%30.11 "Hg10 mi
7:56 AM52 °FScattered clouds.15 mph41%30.09 "Hg10 mi
6:56 AM49 °FPassing clouds.15 mph50%30.07 "Hg10 mi
5:56 AM48 °FClear.13 mph50%30.04 "Hg10 mi
4:56 AM50 °FClear.13 mph44%30.03 "Hg10 mi
3:56 AM51 °FClear.16 mph42%30.02 "Hg10 mi
2:56 AM51 °FClear.17 mph44%30.01 "Hg10 mi
1:56 AM53 °FClear.15 mph51%29.99 "Hg10 mi
12:56 AM54 °FClear.16 mph49%29.98 "Hg10 mi
11:56 PM
Apr 23
56 °FClear.14 mph47%29.96 "Hg10 mi
10:56 PM56 °FClear.12 mph51%29.94 "Hg10 mi
9:56 PM58 °FClear.16 mph43%29.92 "Hg10 mi
8:56 PM58 °FClear.15 mph44%29.89 "Hg10 mi
7:56 PM59 °FPassing clouds.10 mph44%29.85 "Hg10 mi
Weather by CustomWeather, © 2014

See weather overview